Location: Lombard
(41.8800°N, 88.0080°W)
Time: 05:28:29
(UTC-05:00)

Vanguard 2 Rocket - Pass Details

Date: 01 March 2024
Orbit: 555 x 3307 km, 32.9° (Epoch: 12 April)

Event Time Altitude Azimuth Distance (km) Brightness Sun altitude
Rises 17:38:12 0° 272° (W) 4,980 12.9 0.1°
Reaches altitude 10° 17:41:16 10° 265° (W) 4,321 12.6 -0.5°
Maximum altitude 17:52:41 40° 202° (SSW) 3,486 10.2 -2.6°
Drops below altitude 10° 18:09:18 10° 142° (SE) 6,178 10.8 -5.7°
Sets 18:14:51 0° 136° (SE) 7,280 11.1 -6.7°
